Voltar ao catálogo

TELSTAR 19V

AtivoComunicaçõesGEO
NORAD 43562·PAYLOAD·🇨🇦 Canada

Lançado Jul 22, 2018 de Cape Canaveral Space Force Station

Loading…

TLE

AtualizadoSource: CelesTrak SupGP

Época: Sep 14, 2026, 06:00 UTC

1 43562C 18059A   26257.25000000 -.00000190  00000+0  00000+0 0  2578
2 43562   0.0117 201.5131 0002648 328.4898 210.2405  1.00271123    18

Acompanhe TELSTAR 19V em tempo real com AllMySat

Download on the App Store